Terug naar catalogus

SL-12 R/B(2)

ActiefMEO
NORAD 21011·ROCKET BODY·🇷🇺 Russia

Gelanceerd Dec 8, 1990 vanaf Baikonur Cosmodrome

Loading…

Volgende Passages (komende 24 uur)

TLE

VersSource: Space-Track

Epoch: Sep 14, 2026, 11:51 UTC

1 21011U 90110F   26257.49396936 -.00000013  00000-0  00000-0 0  9992
2 21011  64.9979  67.3916 0005188 245.1973 115.2415  2.13261794278603

Volg SL-12 R/B(2) in realtime met AllMySat

Download on the App Store